timestamp,wind_dir_avg,wind_spd_max_dir,wind_spd_avg,wind_spd_gust,battery_voltage,lat,long
2018-03-18 00:00:00+00:00,269.0,276.0,5.7,6.45,,47.59359,-54.27349
2018-03-18 00:10:00+00:00,292.0,293.0,6.87,7.6,,47.59359,-54.27349
2018-03-18 00:20:00+00:00,291.0,291.0,6.41,6.87,,47.59359,-54.27349
2018-03-18 00:30:00+00:00,292.0,290.0,6.5,7.27,,47.59359,-54.27349
2018-03-18 00:40:00+00:00,301.0,300.0,5.74,6.44,,47.59359,-54.27349
2018-03-18 00:50:00+00:00,298.0,299.0,6.92,7.77,,47.59359,-54.27349
2018-03-18 01:00:00+00:00,302.0,304.0,7.53,8.75,,47.59359,-54.27349
2018-03-18 01:10:00+00:00,307.0,303.0,6.94,8.28,,47.59359,-54.27349
2018-03-18 01:20:00+00:00,303.0,299.0,5.47,6.31,,47.59359,-54.27349
2018-03-18 01:30:00+00:00,302.0,300.0,4.83,5.56,,47.59359,-54.27349
2018-03-18 01:40:00+00:00,291.0,289.0,4.84,5.57,,47.59359,-54.27349
2018-03-18 01:50:00+00:00,270.0,266.0,5.21,6.05,,47.59359,-54.27349
2018-03-18 02:00:00+00:00,270.0,272.0,4.16,4.93,,47.59359,-54.27349
2018-03-18 02:10:00+00:00,268.0,256.0,3.86,4.65,,47.59359,-54.27349
2018-03-18 02:20:00+00:00,263.0,265.0,3.62,4.55,,47.59359,-54.27349
2018-03-18 02:30:00+00:00,262.0,269.0,3.59,4.2,,47.59359,-54.27349
2018-03-18 02:40:00+00:00,252.0,255.0,3.22,3.7,,47.59359,-54.27349
2018-03-18 02:50:00+00:00,239.0,242.0,3.86,4.26,,47.59359,-54.27349
2018-03-18 03:00:00+00:00,256.0,254.0,3.94,4.48,,47.59359,-54.27349
2018-03-18 03:10:00+00:00,263.0,262.0,4.56,5.56,,47.59359,-54.27349
2018-03-18 03:20:00+00:00,267.0,270.0,5.52,6.2,,47.59359,-54.27349
2018-03-18 03:30:00+00:00,258.0,260.0,4.87,5.56,,47.59359,-54.27349
2018-03-18 03:40:00+00:00,250.0,251.0,5.06,5.91,,47.59359,-54.27349
2018-03-18 03:50:00+00:00,253.0,255.0,4.38,5.17,,47.59359,-54.27349
2018-03-18 04:00:00+00:00,261.0,261.0,4.94,5.69,,47.59359,-54.27349
2018-03-18 04:10:00+00:00,262.0,260.0,4.91,5.63,,47.59359,-54.27349
2018-03-18 04:20:00+00:00,291.0,291.0,5.94,6.81,,47.59359,-54.27349
2018-03-18 04:30:00+00:00,296.0,298.0,5.1,6.14,,47.59359,-54.27349
2018-03-18 04:40:00+00:00,297.0,295.0,4.5,5.69,,47.59359,-54.27349
2018-03-18 04:50:00+00:00,300.0,300.0,4.05,4.79,,47.59359,-54.27349
2018-03-18 05:00:00+00:00,313.0,311.0,4.8,6.56,,47.59359,-54.27349
2018-03-18 05:10:00+00:00,316.0,319.0,7.2,8.42,,47.59359,-54.27349
2018-03-18 05:20:00+00:00,324.0,321.0,7.0,7.96,,47.59359,-54.27349
2018-03-18 05:30:00+00:00,323.0,315.0,6.84,8.54,,47.59359,-54.27349
2018-03-18 05:40:00+00:00,326.0,323.0,6.73,7.56,,47.59359,-54.27349
2018-03-18 05:50:00+00:00,336.0,342.0,6.54,7.9,,47.59359,-54.27349
2018-03-18 06:00:00+00:00,332.0,340.0,6.15,7.23,,47.59359,-54.27349
2018-03-18 06:10:00+00:00,328.0,330.0,5.78,6.85,,47.59359,-54.27349
2018-03-18 06:20:00+00:00,330.0,338.0,5.91,7.51,,47.59359,-54.27349
2018-03-18 06:30:00+00:00,316.0,322.0,7.7,8.86,,47.59359,-54.27349
2018-03-18 06:40:00+00:00,310.0,317.0,6.38,7.89,,47.59359,-54.27349
2018-03-18 06:50:00+00:00,318.0,323.0,7.88,9.24,,47.59359,-54.27349
2018-03-18 07:00:00+00:00,318.0,323.0,8.1,10.13,,47.59359,-54.27349
2018-03-18 07:10:00+00:00,309.0,307.0,8.15,10.46,,47.59359,-54.27349
2018-03-18 07:20:00+00:00,300.0,301.0,8.22,9.2,,47.59359,-54.27349
2018-03-18 07:30:00+00:00,299.0,302.0,6.44,7.01,,47.59359,-54.27349
2018-03-18 07:40:00+00:00,300.0,303.0,6.31,7.7,,47.59359,-54.27349
2018-03-18 07:50:00+00:00,296.0,292.0,5.99,7.08,,47.59359,-54.27349
2018-03-18 08:00:00+00:00,286.0,285.0,6.37,7.29,,47.59359,-54.27349
2018-03-18 08:10:00+00:00,280.0,277.0,7.53,8.66,,47.59359,-54.27349
2018-03-18 08:20:00+00:00,282.0,279.0,6.99,7.88,,47.59359,-54.27349
2018-03-18 08:30:00+00:00,286.0,285.0,7.34,8.05,,47.59359,-54.27349
2018-03-18 08:40:00+00:00,290.0,289.0,7.3,8.34,,47.59359,-54.27349
2018-03-18 08:50:00+00:00,284.0,289.0,8.35,9.41,,47.59359,-54.27349
2018-03-18 09:00:00+00:00,280.0,276.0,8.46,9.55,,47.59359,-54.27349
2018-03-18 09:10:00+00:00,289.0,294.0,8.58,9.62,,47.59359,-54.27349
2018-03-18 09:20:00+00:00,289.0,284.0,9.55,12.48,,47.59359,-54.27349
2018-03-18 09:30:00+00:00,287.0,289.0,9.2,10.47,,47.59359,-54.27349
2018-03-18 09:40:00+00:00,285.0,287.0,9.35,10.46,,47.59359,-54.27349
2018-03-18 09:50:00+00:00,288.0,285.0,10.04,11.85,,47.59359,-54.27349
2018-03-18 10:00:00+00:00,281.0,290.0,9.48,10.86,,47.59359,-54.27349
2018-03-18 10:10:00+00:00,281.0,272.0,10.59,13.28,,47.59359,-54.27349
2018-03-18 10:20:00+00:00,280.0,285.0,10.66,12.69,,47.59359,-54.27349
2018-03-18 10:30:00+00:00,273.0,272.0,10.41,12.01,,47.59359,-54.27349
2018-03-18 10:40:00+00:00,268.0,268.0,10.64,13.93,,47.59359,-54.27349
2018-03-18 10:50:00+00:00,277.0,272.0,11.28,14.68,,47.59359,-54.27349
2018-03-18 11:00:00+00:00,275.0,271.0,11.03,13.63,,47.59359,-54.27349
2018-03-18 11:10:00+00:00,271.0,269.0,12.28,14.63,,47.59359,-54.27349
2018-03-18 11:20:00+00:00,274.0,267.0,10.46,14.62,,47.59359,-54.27349
2018-03-18 11:30:00+00:00,275.0,269.0,12.12,14.83,,47.59359,-54.27349
2018-03-18 11:40:00+00:00,280.0,275.0,10.03,12.91,,47.59359,-54.27349
2018-03-18 11:50:00+00:00,278.0,272.0,10.19,13.54,,47.59359,-54.27349
2018-03-18 12:00:00+00:00,276.0,272.0,10.99,12.34,,47.59359,-54.27349
2018-03-18 12:10:00+00:00,270.0,264.0,11.55,14.32,,47.59359,-54.27349
2018-03-18 12:20:00+00:00,271.0,267.0,10.53,11.89,,47.59359,-54.27349
2018-03-18 12:30:00+00:00,269.0,264.0,12.19,14.34,,47.59359,-54.27349
2018-03-18 12:40:00+00:00,268.0,265.0,11.95,13.88,,47.59359,-54.27349
2018-03-18 12:50:00+00:00,266.0,263.0,10.93,13.07,,47.59359,-54.27349
2018-03-18 13:00:00+00:00,268.0,275.0,11.8,14.08,,47.59359,-54.27349
2018-03-18 13:10:00+00:00,270.0,271.0,11.98,14.05,,47.59359,-54.27349
2018-03-18 13:20:00+00:00,265.0,259.0,12.58,14.49,,47.59359,-54.27349
2018-03-18 13:30:00+00:00,269.0,263.0,13.57,15.97,,47.59359,-54.27349
2018-03-18 13:40:00+00:00,277.0,280.0,13.71,15.35,,47.59359,-54.27349
2018-03-18 13:50:00+00:00,267.0,266.0,13.33,15.25,,47.59359,-54.27349
2018-03-18 14:00:00+00:00,268.0,264.0,11.95,14.75,,47.59359,-54.27349
2018-03-18 14:10:00+00:00,270.0,268.0,11.53,13.54,,47.59359,-54.27349
2018-03-18 14:20:00+00:00,274.0,276.0,12.93,14.53,,47.59359,-54.27349
2018-03-18 14:30:00+00:00,269.0,265.0,11.74,14.26,,47.59359,-54.27349
2018-03-18 14:40:00+00:00,276.0,280.0,11.49,14.15,,47.59359,-54.27349
2018-03-18 14:50:00+00:00,281.0,283.0,11.41,13.69,,47.59359,-54.27349
2018-03-18 15:00:00+00:00,277.0,274.0,11.48,13.17,,47.59359,-54.27349
2018-03-18 15:10:00+00:00,277.0,274.0,11.0,13.34,,47.59359,-54.27349
2018-03-18 15:20:00+00:00,286.0,286.0,12.96,15.4,,47.59359,-54.27349
2018-03-18 15:30:00+00:00,281.0,285.0,13.82,15.94,,47.59359,-54.27349
2018-03-18 15:40:00+00:00,277.0,282.0,13.62,15.98,,47.59359,-54.27349
2018-03-18 15:50:00+00:00,283.0,288.0,13.5,16.63,,47.59359,-54.27349
2018-03-18 16:00:00+00:00,277.0,285.0,12.34,15.09,,47.59359,-54.27349
2018-03-18 16:10:00+00:00,279.0,281.0,12.76,14.85,,47.59359,-54.27349
2018-03-18 16:20:00+00:00,280.0,288.0,10.48,14.41,,47.59359,-54.27349
2018-03-18 16:30:00+00:00,285.0,285.0,12.95,15.53,,47.59359,-54.27349
2018-03-18 16:40:00+00:00,279.0,283.0,13.26,14.92,,47.59359,-54.27349
2018-03-18 16:50:00+00:00,280.0,282.0,13.44,15.54,,47.59359,-54.27349
2018-03-18 17:00:00+00:00,277.0,285.0,12.03,14.53,,47.59359,-54.27349
2018-03-18 17:10:00+00:00,278.0,287.0,12.25,14.51,,47.59359,-54.27349
2018-03-18 17:20:00+00:00,275.0,278.0,12.84,15.34,,47.59359,-54.27349
2018-03-18 17:30:00+00:00,282.0,285.0,15.48,18.84,,47.59359,-54.27349
2018-03-18 17:40:00+00:00,282.0,286.0,15.24,17.98,,47.59359,-54.27349
2018-03-18 17:50:00+00:00,285.0,287.0,12.64,14.39,,47.59359,-54.27349
2018-03-18 18:00:00+00:00,282.0,284.0,14.21,16.41,,47.59359,-54.27349
2018-03-18 18:10:00+00:00,283.0,288.0,14.51,17.24,,47.59359,-54.27349
2018-03-18 18:20:00+00:00,284.0,292.0,14.73,18.45,,47.59359,-54.27349
2018-03-18 18:30:00+00:00,280.0,286.0,15.47,18.24,,47.59359,-54.27349
2018-03-18 18:40:00+00:00,287.0,290.0,13.64,15.67,,47.59359,-54.27349
2018-03-18 18:50:00+00:00,286.0,275.0,14.64,18.44,,47.59359,-54.27349
2018-03-18 19:00:00+00:00,284.0,289.0,13.45,15.52,,47.59359,-54.27349
2018-03-18 19:10:00+00:00,283.0,286.0,14.79,17.7,,47.59359,-54.27349
2018-03-18 19:20:00+00:00,283.0,277.0,14.27,17.44,,47.59359,-54.27349
2018-03-18 19:30:00+00:00,282.0,284.0,14.0,15.98,,47.59359,-54.27349
2018-03-18 19:40:00+00:00,289.0,291.0,12.69,14.99,,47.59359,-54.27349
2018-03-18 19:50:00+00:00,284.0,293.0,15.42,18.08,,47.59359,-54.27349
2018-03-18 20:00:00+00:00,288.0,296.0,15.22,18.06,,47.59359,-54.27349
2018-03-18 20:10:00+00:00,289.0,297.0,13.33,16.58,,47.59359,-54.27349
2018-03-18 20:20:00+00:00,293.0,286.0,13.66,16.1,,47.59359,-54.27349
2018-03-18 20:30:00+00:00,286.0,298.0,13.85,16.61,,47.59359,-54.27349
2018-03-18 20:40:00+00:00,288.0,301.0,14.96,18.46,,47.59359,-54.27349
2018-03-18 20:50:00+00:00,286.0,285.0,15.87,18.06,,47.59359,-54.27349
2018-03-18 21:00:00+00:00,292.0,304.0,14.96,16.25,,47.59359,-54.27349
2018-03-18 21:10:00+00:00,286.0,290.0,13.98,16.42,,47.59359,-54.27349
2018-03-18 21:20:00+00:00,284.0,292.0,14.2,16.2,,47.59359,-54.27349
2018-03-18 21:30:00+00:00,283.0,284.0,14.17,16.43,,47.59359,-54.27349
2018-03-18 21:40:00+00:00,284.0,287.0,14.81,16.83,,47.59359,-54.27349
2018-03-18 21:50:00+00:00,298.0,302.0,15.18,18.95,,47.59359,-54.27349
2018-03-18 22:00:00+00:00,292.0,307.0,16.55,21.19,,47.59359,-54.27349
2018-03-18 22:10:00+00:00,293.0,294.0,14.31,16.91,,47.59359,-54.27349
2018-03-18 22:20:00+00:00,294.0,303.0,15.37,17.8,,47.59359,-54.27349
2018-03-18 22:30:00+00:00,289.0,299.0,14.52,16.54,,47.59359,-54.27349
2018-03-18 22:40:00+00:00,290.0,293.0,11.68,13.87,,47.59359,-54.27349
2018-03-18 22:50:00+00:00,281.0,268.0,12.37,15.43,,47.59359,-54.27349
2018-03-18 23:00:00+00:00,286.0,289.0,12.43,15.17,,47.59359,-54.27349
2018-03-18 23:10:00+00:00,287.0,282.0,14.5,18.01,,47.59359,-54.27349
2018-03-18 23:20:00+00:00,282.0,284.0,12.15,15.35,,47.59359,-54.27349
2018-03-18 23:30:00+00:00,280.0,281.0,13.53,17.38,,47.59359,-54.27349
2018-03-18 23:40:00+00:00,284.0,275.0,14.18,17.77,,47.59359,-54.27349
2018-03-18 23:50:00+00:00,293.0,306.0,15.08,19.07,,47.59359,-54.27349
